Weather History for KOLS - April, 2013

Change the Weather History Date:

Sunday, April 28, 2013

  Actual Average (KTUS) Record (KTUS)
Temperature  
Mean Temperature 70 °F 71 °F  
Max Temperature 90 °F 86 °F 101 °F (1992)
Min Temperature 50 °F 55 °F 38 °F (1932)
Degree Days  
Heating Degree Days 0 1  
Month to date heating degree days 58  
Since 1 July heating degree days 1504  
Cooling Degree Days 5 6  
Month to date cooling degree days 107  
Year to date cooling degree days 140  
Growing Degree Days 20 (Base 50)    
Moisture  
Dew Point 12 °F    
Average Humidity 13    
Maximum Humidity 28    
Minimum Humidity 4    
Precipitation  
Precipitation 0.00 in 0.01 in 0.33 in (1905)
Month to date precipitation 0.30  
Year to date precipitation 2.83  
Sea Level Pressure  
Sea Level Pressure 29.80 in    
Wind  
Wind Speed 4 mph (North)    
Max Wind Speed 10 mph    
Max Gust Speed 21 mph    
Visibility 10 miles    
Events      
T = Trace of Precipitation, MM = Missing Value Source: NWS Daily Summary

Daily Weather History Graph

Daily Weather History Graph

Search for Another Location

Airport or City:

Trip Planner

Search our weather history database for the weather conditions in past years. The results will help you decide how hot, cold, wet, or windy it might be!

Date:

Astronomy

Apr. 28, 2013 Rise Set
Actual Time 5:40 AM MST 7:01 PM MST
Civil Twilight 5:15 AM MST 7:26 PM MST
Nautical Twilight 4:44 AM MST 7:57 PM MST
Astronomical Twilight 4:13 AM MST 8:29 PM MST
Moon 10:28 PM MST (4/28) 8:08 AM MST (4/28)
Length of Visible Light 14h 11m
Length of Day
13h 20m
Waning Gibbous, 88% of the Moon is Illuminated
Apr 28
Waning Gibbous
May 2
Last Quarter
May 9
New
May 17
First Quarter
May 24
Full

Hourly Weather History & Observations

Time (MST) Temp. Dew Point Humidity Pressure Visibility Wind Dir Wind Speed Gust Speed Precip Events Conditions
12:54 AM 57.0 °F 17.1 °F 21% 29.86 in 10.0 mi ENE 5.8 mph - N/A   Clear
1:54 AM 55.0 °F 17.1 °F 23% 29.85 in 10.0 mi Calm Calm - N/A   Clear
2:54 AM 54.0 °F 18.0 °F 24% 29.84 in 10.0 mi East 3.5 mph - N/A   Clear
3:54 AM 52.0 °F 17.1 °F 25% 29.84 in 10.0 mi Calm Calm - N/A   Clear
4:54 AM 51.1 °F 18.0 °F 27% 29.84 in 10.0 mi ESE 3.5 mph - N/A   Clear
5:54 AM 50.0 °F 17.6 °F 28% 30.01 in 10.0 mi East 3.5 mph - N/A   Clear
6:54 AM 55.9 °F 18.0 °F 23% 29.86 in 10.0 mi Calm Calm - N/A   Clear
7:54 AM 64.9 °F 18.0 °F 16% 29.86 in 10.0 mi Calm Calm - N/A   Clear
8:54 AM 73.9 °F 18.0 °F 12% 29.84 in 10.0 mi South 5.8 mph - N/A   Clear
9:54 AM 80.1 °F 17.1 °F 9% 29.84 in 10.0 mi Calm Calm - N/A   Clear
10:54 AM 84.9 °F 12.0 °F 7% 29.82 in 10.0 mi West 9.2 mph - N/A   Clear
11:54 AM 86.0 °F 8.1 °F 5% 29.81 in 10.0 mi North - - N/A   Clear
12:54 PM 88.0 °F 7.0 °F 5% 29.79 in 10.0 mi West 8.1 mph - N/A   Clear
1:54 PM 88.0 °F 7.0 °F 5% 29.77 in 10.0 mi SW 10.4 mph 20.7 mph N/A   Clear
2:54 PM 90.0 °F 8.1 °F 5% 29.73 in 10.0 mi West 9.2 mph - N/A   Clear
3:54 PM 88.0 °F 6.1 °F 5% 29.72 in 10.0 mi WNW 8.1 mph - N/A   Clear
4:54 PM 88.0 °F 5.0 °F 4% 29.71 in 10.0 mi NNW 9.2 mph - N/A   Clear
5:54 PM 86.0 °F 5.0 °F 5% 29.71 in 10.0 mi NW 5.8 mph - N/A   Clear
6:54 PM 82.0 °F 6.1 °F 6% 29.71 in 10.0 mi North 6.9 mph - N/A   Clear
7:54 PM 73.9 °F 8.1 °F 8% 29.71 in 10.0 mi NE 9.2 mph - N/A   Clear
8:54 PM 71.1 °F 8.1 °F 9% 29.73 in 10.0 mi Calm Calm - N/A   Clear
9:54 PM 64.0 °F 10.0 °F 12% 29.75 in 10.0 mi Calm Calm - N/A   Clear
10:54 PM 64.9 °F 10.0 °F 12% 29.74 in 10.0 mi NE 3.5 mph - N/A   Clear
11:54 PM 62.1 °F 10.9 °F 13% 29.75 in 10.0 mi ENE 5.8 mph - N/A   Clear